DECAYED

STARLINK-2398, 47918 (Decayed)

Orbit data source: Space-Track

STARLINK-2398, 47918 was a payload satellite owned by SpaceX/Seattle (US) in LEO that was launched on Sun, 14 Mar 2021 UTC via an FALCON 9 launch vehicle from the Air Force Eastern Test Range (AFETR). Payload-class satellites include a variety of spacecraft equipped with specific instruments for various scientific and technological missions. These include communications satellites like Starlink; space stations such as the ISS; scientific satellites like the Hubble; Earth observation satellites from companies like Planet Labs, Umbra, and HawkEye 360; GPS; miniature CubeSats for education and research; and military/defense satellites.

Not visible in the next 10 days
Identifier
47918, 2021-021BL
Orbit
Decayed
Country
Flag of USUS
Related business
Manufacturer
SpaceX/Seattle
Mission
Decayed Commercial Communications
Bus & Motor
STARLINK, Unknown motor
Mass
260 kg wet, ~248 kg dry
Launch date (UTC)
2021-03-14 (5 years ago)
Launch vehicle
FALCON 9
Launch site
Air Force Eastern Test Range (AFETR)
Object type
Payload
Rocket body
Debris
Shape & HBR
Box + 1 Pan, 10.1 m
Radar Cross Section
13.562 m², Large (>1 m²)

Expand to show TLE details & history
Last TLE update: 1 year ago

TLE from 1 year ago
0 STARLINK-2398
1 47918U 21021BL  25042.87230906  .05364454  12128-4  11196-2 0  9992
2 47918  53.0363 191.7722 0005680 314.5355 169.4551 16.30209020217166
Epoch: 2025-02-11T20:56Z
TLE epoch observation values (Epoch: 2025-02-11T20:56:07.502Z)
Latitude
41.62183°
Longitude
-126.09968°
Altitude
199.548 km
Speed
7.79 km/s
True Right ascension
22h 00m 24s
True Declination
41° 26' 12"
Sunlit
Object was in daylight at epoch
Visualization orbit readout
Latitude
Unknown
Longitude
Unknown
Altitude
Unknown
Speed
Unknown
Apparent Right ascension
Unknown
Apparent Declination
Unknown
Sunlit
N/A
Visualization observer readout
Local Sidereal Time
21:31:02
Azimuth
Unknown
Elevation
Unknown
Doppler factor
Unknown
Orbital elements
Apogee altitude
195.998 km
Perigee altitude
188.534 km
Semi-major axis
6,570.403 km
Eccentricity
0.00057
Inclination
53.0363°
RAAN
191.7722°
Arg. of periapsis
314.5355°
True anomaly
169.467°
Mean anomaly
169.4551°
Eccentric anomaly
169.46105°
Mean motion
4.07526 °/min
Orbital period
88.34 mins
BSTAR
0.0011196
Loading maneuver chart data...
Computing Atmospheric mass density...

Documentation

Showing up to 5 results
|